Regional Weather Roundup
Issued by NWS

Home | Current Version | Previous Version | Text Only | Print | Product List | Glossary On
Versions: 1 2 3 4 5 6 7 8 9 10 11 12 13 14 15 16 17 18 19 20 21 22 23 24 25 26 27 28 29 30 31 32 33 34 35 36 37 38 39 40 41 42 43 44 45 46 47 48 49 50
939
ASUS46 KPQR 252310
RWROR

OREGON REGIONAL WEATHER ROUNDUP
NATIONAL WEATHER SERVICE PORTLAND OR
400 PM PDT WED MAY 25 2016

NOTE: "FAIR" INDICATES FEW OR NO CLOUDS BELOW 12,000 FEET WITH
NO SIGNIFICANT WEATHER AND/OR OBSTRUCTIONS TO VISIBILITY.

ORZ001>013-260000-
NORTHWEST OREGON


CITY           SKY/WX    TMP DP  RH WIND       PRES   REMARKS
ASTORIA        CLOUDY    59  48  67 NW16      30.23S
NEWPORT        PTSUNNY   57  52  82 NW14      30.27S
PORTLAND       PTSUNNY   68  49  50 E7        30.17F
VANCOUVER WA   PTSUNNY   66  49  54 S5        30.16F
SCAPPOOSE      CLOUDY    64  50  60 N3        30.17S
HILLSBORO      CLOUDY    66  47  50 CALM      30.16F
AURORA         PTSUNNY   65  49  56 SW6       30.19F
MCMINNVILLE    PTSUNNY   66  51  58 SW10      30.19S
SALEM          CLOUDY    63  47  55 SW6       30.18F
CORVALLIS        N/A     66  48  52 NW5       30.21F
EUGENE         CLOUDY    64  49  57 N5        30.21S
$$

ORZ021-028-260000-
SOUTHWEST OREGON


CITY           SKY/WX    TMP DP  RH WIND       PRES   REMARKS
NORTH BEND     SUNNY     63  52  67 N15G21    30.25S
BROOKINGS      SUNNY     63  52  67 NW13G18   30.16S
ROSEBURG       PTSUNNY   67  44  43 N12G17    30.18F
SEXTON SUMMIT  SUNNY     60  45  57 VRB6      30.17S
MEDFORD        MOSUNNY   75  44  33 NW9       30.08F
$$

ORZ014>016-041-260000-
COLUMBIA GORGE


CITY           SKY/WX    TMP DP  RH WIND       PRES   REMARKS
TROUTDALE      CLOUDY    66  50  56 NE7       30.17F
THE DALLES     LGT RAIN  71  45  39 W21G35    30.06S
$$

ORZ029>031-041-044-049-050-061>064-502-503-505>511-260000-
EASTERN OREGON


CITY           SKY/WX    TMP DP  RH WIND       PRES   REMARKS
REDMOND        MOSUNNY   68  38  33 NW10      30.08S
BEND           MOSUNNY   63  39  42 N10       30.08F
PRINEVILLE     PTSUNNY   66  41  39 NW9G18    30.08F
KLAMATH FALLS  PTSUNNY   66  36  32 NW16G26   30.09F
LAKEVIEW       CLOUDY    57  37  47 N8        30.13S
HERMISTON      SUNNY     78  42  27 W14       29.97F
PENDLETON      SUNNY     73  41  31 W14G20    29.99F
JOHN DAY         N/A    N/A N/A N/A MISG        N/A
MEACHAM        MOSUNNY   62  38  40 MISG      30.07S
LA GRANDE      PTSUNNY   68  37  32 N13       30.01F
BAKER CITY     MOSUNNY   68  41  37 W16       30.02F
BURNS          PTSUNNY   66  34  30 W8        30.06F
ROME             N/A     67  32  27 NW12      30.03F
ONTARIO        MOSUNNY   76  35  22 VRB3      29.96F
$$




USA.gov is the U.S. government's official web portal to all federal, state and local government web resources and services.